User: anonymous   Login
Location: eljas
(40.1958°N, 6.8661°W)
Time: 11:22:13
(UTC+01:00)
Language:

Okean O Rocket - Orbit

View from above orbital plane
View from above orbital plane
View from above satellite
View from above satellite

Ground track
Ground track

The orbit data is extracted from the following two-line orbital elements,

1 25861U 99039B   15025.53894806  .00000404  00000-0  63126-4 0  8515
2 25861 097.9822 346.8871 0015951 023.4391 110.7406 14.77977914836700
Epoch (UTC): 25 January 2015 12:56:05
Eccentricity: 0.0015951
inclination: 97.9822°
perigee height: 624 km
apogee height: 647 km
right ascension of ascending node: 346.8871°
argument of perigee: 23.4391°
revolutions per day: 14.77977914
mean anomaly at epoch: 110.7406°
orbit number at epoch: 83670

The dashed part of the orbit path shows where the satellite is in the earth's shadow,  

DLR